Location: Béaulencourt
(50.0796°N, 2.8795°E)
Time: 23:12:42
(UTC+00:00)

ATLAS 2AS CENTAUR R/B - Pass Details

Date: 20 January 2026
Orbit: 1050 x 1161 km, 63.7° (Epoch: 17 February)

Event Time Altitude Azimuth Distance (km) Brightness Sun altitude
Exits shadow 05:25:01 35° 293° (WNW) 1,644 3.2 -20.7°
Maximum altitude 05:27:39 53° 238° (WSW) 1,270 2.8 -20.3°
Drops below altitude 10° 05:34:10 10° 163° (SSE) 2,867 5.3 -19.3°
Sets 05:36:51 0° 159° (SSE) 3,826 6.0 -18.8°
